UWE-4

Last updated on Fri Jul 11 2025 00:03:04 GMT+0000 (Coordinated Universal Time)

1 43880U 18111E 25191.55092285 .00007703 00000+0 29626-3 0 9993 2 43880 97.5887 104.9042 0013906 100.7810 259.4994 15.26605027358355
UTC large
Height (km)
Speed (km/s)
/
Latitude / Longitude
Inclination (degrees)
Orbital Period (minutes)
Azimuth
Elevation
Range (km)
Doppler Factor

Next 0 passes for location: London (51.5072 / 0.1276)

Sorry there are no passes over London.